Tracking 27419 objects as of 9-Jun-2023
HD Live streaming from Space Station
objects crossing your sky now

ICEYE-X7

Track ICEYE-X7 now!
10-day predictions


NORAD ID: 46496
Int'l Code: 2020-068L
Perigee: 558.5 km
Apogee: 578.3 km
Inclination: 97.6 °
Period: 95.9 minutes
Semi major axis: 6939 km
RCS: Unknown
Launch date: September 28, 2020
Source: (FIN)
Launch site: PLESETSK MISSILE AND SPACE COMPLEX (PKMTR)
Your satellite tracking list
Your tracking list is empty




NASA's NSSDC Master Catalog

Two Line Element Set (TLE):
1 46496U 20068L   23159.59645370  .00005089  00000-0  39389-3 0  9991
2 46496  97.6427  96.3172 0014271 154.0273 206.1671 15.01819052147491
Source of the keplerian elements: AFSPC